Weather in Ahvaz

Iran     31˚19′22″N   48˚40′45″E
temp.,
°C
wind,
m/s
gust,
m/s
humid.,
%
clouds,
%
prec.,
mm/h
press.,
hPa
HPBL,
m
28 november, sat
sat2800:30+20˚n4564100 0.7 1022207
03:30+20˚ene3565100 1.3 1021232
06:30+18˚sse4689100 4.8 1022390
09:30+18˚ese4485100 6.7 1023332
12:30+20˚ese5676100 0.9 1021607
15:30+20˚ese566991 0.9 1019536
18:30+20˚ese5872100 0.1 1019424
21:30+20˚se5973100 1.8 1019455
29 november, sun
sun2900:30+19˚se6984100 1.1 1017456
03:30+18˚ese71090100 14.8 1017465
06:30+18˚ese6986100 4.1 1017471
09:30+18˚se101486100 9.3 1018614
12:30+21˚se101474100 3.1 1016882
15:30+22˚sse91270100 4.9 10151204
18:30+21˚sse8127366 2.4 1015513
21:30+20˚sw348150 3.5 1017218
30 november, mon
mon3000:30+20˚wnw237963 0.1 1017221
03:30+19˚w228082 0.2 1017137
06:30+17˚wnw348737 0.1 1018167
09:30+18˚wnw348021 0.1 1020298
12:30+21˚w33679 0.0 1019826
15:30+22˚w32548 0.0 10181068
18:30+21˚wnw33610 0.0 1018426
21:30+19˚wnw35690 0.0 1019202
1 december, tue
tue100:30+18˚wnw46720 0.0 1019177
03:30+17˚nw34710 0.0 1018147
06:30+17˚wnw23730 0.0 101989
09:30+18˚w11660 0.0 1020228
12:30+21˚nw115233 0.0 1019619
15:30+22˚w434360 0.0 1018919
18:30+21˚wnw3450100 0.0 1019327
21:30+19˚nnw5754100 0.0 1020306
2 december, wed
wed200:30+19˚n5842100 0.0 1019361
03:30+18˚n576199 0.2 1018255
06:30+19˚ene247191 0.5 1018128
09:30+21˚e456383 0.6 1019308
12:30+23˚nw215565 0.0 1017627
15:30+21˚nw437166 0.8 1016331
18:30+20˚ne4578100 1.4 1017259
21:30+20˚e467694 2.4 1018272